Weather History for Carlsbad, NM

Change the Weather History Date:

Tuesday, February 26, 2013

  Actual Average Record
Temperature  
Mean Temperature 47 °F -  
Max Temperature 69 °F 65 °F 87 °F (1986)
Min Temperature 25 °F 35 °F 19 °F (2002)
Degree Days  
Heating Degree Days 18    
Moisture  
Dew Point 7 °F    
Average Humidity 26    
Maximum Humidity 58    
Minimum Humidity 5    
Precipitation  
Precipitation 0.00 in - - ()
Sea Level Pressure  
Sea Level Pressure 29.79 in    
Wind  
Wind Speed 7 mph (NE)    
Max Wind Speed 22 mph    
Max Gust Speed 33 mph    
Visibility 10 miles    
Events      
Averages and records for this station are not official NWS values.
T = Trace of Precipitation, MM = Missing Value Source: NWS Daily Summary

Daily Weather History Graph

Daily Weather History Graph

Search for Another Location

Airport:

Trip Planner

Search our weather history database for the weather conditions in past years. The results will help you decide how hot, cold, wet, or windy it might be!

Date:

Astronomy

Feb. 26, 2013 Rise Set
Actual Time 6:27 AM MST 5:52 PM MST
Civil Twilight 6:02 AM MST 6:17 PM MST
Nautical Twilight 5:34 AM MST 6:45 PM MST
Astronomical Twilight 5:06 AM MST 7:14 PM MST
Moon 7:03 PM MST (2/26) 6:37 AM MST (2/26)
Length of Visible Light 12h 14m
Length of Day
11h 24m
Full, 99% of the Moon is Illuminated
Feb 26
Full
Mar 4
Last Quarter
Mar 11
New
Mar 19
First Quarter
Mar 27
Full

Hourly Weather History & Observations

Time (MST) Temp. Windchill Dew Point Humidity Pressure Visibility Wind Dir Wind Speed Gust Speed Precip Events Conditions
12:53 AM 33.1 °F 30.0 °F 10.9 °F 40% 29.86 in 10.0 mi East 3.5 mph - N/A   Clear
1:53 AM 30.9 °F - 10.9 °F 43% 29.84 in 10.0 mi Calm Calm - N/A   Clear
2:53 AM 28.0 °F 24.2 °F 10.9 °F 49% 29.83 in 10.0 mi East 3.5 mph - N/A   Clear
3:53 AM 28.0 °F 21.7 °F 12.0 °F 51% 29.82 in 10.0 mi NE 5.8 mph - N/A   Clear
4:53 AM 27.0 °F 20.5 °F 12.9 °F 56% 29.83 in 10.0 mi North 5.8 mph - N/A   Clear
5:53 AM 25.0 °F 19.3 °F 12.0 °F 58% 29.85 in 10.0 mi North 4.6 mph - N/A   Clear
6:53 AM 28.0 °F - 15.1 °F 58% 29.86 in 10.0 mi Calm Calm - N/A   Clear
7:53 AM 34.0 °F 28.8 °F 17.1 °F 50% 29.86 in 10.0 mi SSE 5.8 mph - N/A   Clear
8:53 AM 43.0 °F 38.2 °F 16.0 °F 34% 29.84 in 10.0 mi SE 8.1 mph - N/A   Clear
9:53 AM 52.0 °F - 14.0 °F 22% 29.81 in 10.0 mi SE 9.2 mph - N/A   Clear
10:53 AM 57.9 °F - 12.0 °F 16% 29.78 in 10.0 mi ESE 9.2 mph - N/A   Clear
11:53 AM 62.1 °F - 9.0 °F 12% 29.74 in 10.0 mi SSE 9.2 mph 16.1 mph N/A   Clear
12:53 PM 68.0 °F - 3.9 °F 8% 29.70 in 10.0 mi Variable 6.9 mph - N/A   Clear
1:53 PM 69.1 °F - 1.9 °F 7% 29.67 in 10.0 mi SW 9.2 mph 18.4 mph N/A   Clear
2:53 PM 69.1 °F - -2.0 °F 6% 29.65 in 10.0 mi WSW 19.6 mph 28.8 mph N/A   Clear
3:53 PM 69.1 °F - -6.0 °F 5% 29.63 in 10.0 mi WSW 21.9 mph 33.4 mph N/A   Clear
4:53 PM 66.9 °F - -6.0 °F 5% 29.65 in 10.0 mi West 20.7 mph 29.9 mph N/A   Clear
5:53 PM 63.0 °F - -4.0 °F 7% 29.68 in 10.0 mi West 15.0 mph 26.5 mph N/A   Clear
6:53 PM 52.0 °F - 1.0 °F 12% 29.73 in 10.0 mi ESE 3.5 mph - N/A   Clear
7:53 PM 51.1 °F - 8.1 °F 18% 29.81 in 10.0 mi North 20.7 mph 32.2 mph N/A   Clear
8:53 PM 48.0 °F - 3.9 °F 16% 29.85 in 10.0 mi North 16.1 mph 25.3 mph N/A   Clear
9:53 PM 46.0 °F 39.0 °F 3.9 °F 18% 29.89 in 10.0 mi North 17.3 mph 26.5 mph N/A   Clear
10:53 PM 44.1 °F 37.1 °F 1.9 °F 17% 29.92 in 10.0 mi North 15.0 mph 24.2 mph N/A   Clear
11:53 PM 42.1 °F 35.2 °F 1.0 °F 18% 29.96 in 10.0 mi NNW 12.7 mph - N/A   Clear